Voltar ao catálogo

BREEZE-KM R/B

AtivoPO
NORAD 40064·ROCKET BODY·🇷🇺 Russia

Lançado Jul 3, 2014 de Plesetsk Cosmodrome

Loading…

Próximas Passagens (próximas 24 horas)

TLE

AtualizadoSource: Space-Track

Época: Sep 14, 2026, 16:57 UTC

1 40064U 14036D   26257.70689939  .00000019  00000-0  37632-4 0  9996
2 40064  82.5115  44.1393 0229252 257.9421  99.5909 12.81759806570846

Acompanhe BREEZE-KM R/B em tempo real com AllMySat

Download on the App Store